Weather History for Luverne, MN

Change the Weather History Date:

Saturday, August 3, 2013

  Actual Average (KFSD) Record (KFSD)
Temperature  
Mean Temperature 64 °F 73 °F  
Max Temperature 77 °F 83 °F 105 °F (1930)
Min Temperature 50 °F 62 °F 39 °F (1894)
Degree Days  
Heating Degree Days 2 0  
Month to date heating degree days 0  
Since 1 June heating degree days 59  
Since 1 July heating degree days 8  
Cooling Degree Days 0 8  
Month to date cooling degree days 24  
Year to date cooling degree days 451  
Since 1 June cooling degree days 415  
Growing Degree Days 14 (Base 50)    
Moisture  
Dew Point 50 °F    
Average Humidity 65    
Maximum Humidity 94    
Minimum Humidity 32    
Precipitation  
Precipitation 0.00 in 0.11 in 1.89 in (2004)
Month to date precipitation 0.32  
Year to date precipitation 16.66  
Snow  
Snow 0.00 in 0.00 in 0.00 in ()
Month to date snowfall 0.0  
Since 1 June snowfall 0.0  
Since 1 July snowfall 0.0  
Snow Depth -    
Sea Level Pressure  
Sea Level Pressure 30.18 in    
Wind  
Wind Speed 2 mph (NE)    
Max Wind Speed 12 mph    
Max Gust Speed 9 mph    
Visibility 10 miles    
Events      
T = Trace of Precipitation, MM = Missing Value Source: NWS Daily Summary

Daily Weather History Graph

Daily Weather History Graph

Search for Another Location

Airport:

Trip Planner

Search our weather history database for the weather conditions in past years. The results will help you decide how hot, cold, wet, or windy it might be!

Date:

Astronomy

Aug. 03, 2013 Rise Set
Actual Time 6:16 AM CDT 8:44 PM CDT
Civil Twilight 5:44 AM CDT 9:17 PM CDT
Nautical Twilight 5:03 AM CDT 9:57 PM CDT
Astronomical Twilight 4:17 AM CDT 10:42 PM CDT
Moon 3:25 AM CDT (8/3) 6:28 PM CDT (8/3)
Length of Visible Light 15h 32m
Length of Day
14h 28m
Waning Crescent, 9% of the Moon is Illuminated
Aug 3
Waning Crescent
Aug 6
New
Aug 14
First Quarter
Aug 20
Full
Aug 28
Last Quarter

Hourly Weather History & Observations

Time (CDT) Temp. Dew Point Humidity Pressure Visibility Wind Dir Wind Speed Gust Speed Precip Events Conditions
12:13 AM 55.4 °F 53.6 °F 94% 30.10 in 10.0 mi Calm Calm - N/A   Clear
12:33 AM 55.4 °F 51.8 °F 88% 30.10 in 10.0 mi Calm Calm - N/A   Clear
12:53 AM 55.4 °F 51.8 °F 88% 30.10 in 10.0 mi Calm Calm - N/A   Clear
1:13 AM 53.6 °F 51.8 °F 94% 30.11 in 10.0 mi Calm Calm - N/A   Clear
1:33 AM 53.6 °F 50.0 °F 88% 30.11 in 10.0 mi Calm Calm - N/A   Clear
1:53 AM 53.6 °F 50.0 °F 88% 30.11 in 10.0 mi Calm Calm - N/A   Clear
2:14 AM 53.6 °F 50.0 °F 88% 30.12 in 10.0 mi Calm Calm - N/A   Clear
2:33 AM 51.8 °F 50.0 °F 94% 30.12 in 10.0 mi Calm Calm - N/A   Clear
2:53 AM 51.8 °F 50.0 °F 94% 30.11 in 10.0 mi Calm Calm - N/A   Clear
3:13 AM 51.8 °F 50.0 °F 94% 30.12 in 10.0 mi Calm Calm - N/A   Clear
3:33 AM 51.8 °F 50.0 °F 94% 30.13 in 10.0 mi Calm Calm - N/A   Clear
3:53 AM 51.8 °F 48.2 °F 88% 30.13 in 10.0 mi Calm Calm - N/A   Clear
4:13 AM 53.6 °F 50.0 °F 88% 30.12 in 10.0 mi Calm Calm - N/A   Clear
4:33 AM 51.8 °F 48.2 °F 88% 30.12 in 10.0 mi Calm Calm - N/A   Clear
4:53 AM 50.0 °F 46.4 °F 87% 30.13 in 10.0 mi Calm Calm - N/A   Clear
5:13 AM 50.0 °F 46.4 °F 87% 30.13 in 10.0 mi Calm Calm - N/A   Clear
5:33 AM 50.0 °F 46.4 °F 87% 30.14 in 10.0 mi Calm Calm - N/A   Clear
5:53 AM 50.0 °F 46.4 °F 87% 30.15 in 10.0 mi Calm Calm - N/A   Clear
6:13 AM 50.0 °F 46.4 °F 87% 30.16 in 10.0 mi Calm Calm - N/A   Clear
6:33 AM 50.0 °F 46.4 °F 87% 30.16 in 10.0 mi Calm Calm - N/A   Clear
6:53 AM 50.0 °F 46.4 °F 87% 30.17 in 10.0 mi Calm Calm - N/A   Clear
7:13 AM 50.0 °F 48.2 °F 94% 30.17 in 10.0 mi Calm Calm - N/A   Clear
7:33 AM 53.6 °F 50.0 °F 88% 30.19 in 10.0 mi Calm Calm - N/A   Clear
7:53 AM 55.4 °F 51.8 °F 88% 30.19 in 10.0 mi Calm Calm - N/A   Clear
8:13 AM 59.0 °F 53.6 °F 82% 30.18 in 10.0 mi NE 4.6 mph - N/A   Clear
8:34 AM 60.8 °F 53.6 °F 77% 30.18 in 10.0 mi NNE 3.5 mph - N/A   Clear
8:53 AM 62.6 °F 53.6 °F 72% 30.19 in 10.0 mi NE 3.5 mph - N/A   Clear
9:13 AM 64.4 °F 53.6 °F 68% 30.19 in 10.0 mi NE 4.6 mph - N/A   Clear
9:34 AM 68.0 °F 51.8 °F 56% 30.20 in 10.0 mi NNE 4.6 mph - N/A   Clear
9:53 AM 69.8 °F 51.8 °F 53% 30.21 in 10.0 mi NNE 4.6 mph - N/A   Clear
10:13 AM 69.8 °F 51.8 °F 53% 30.21 in 10.0 mi NE 3.5 mph - N/A   Clear
10:33 AM 71.6 °F 51.8 °F 50% 30.21 in 10.0 mi ENE 5.8 mph - N/A   Clear
10:53 AM 71.6 °F 51.8 °F 50% 30.20 in 10.0 mi NNE 4.6 mph - N/A   Clear
11:14 AM 71.6 °F 50.0 °F 46% 30.21 in 10.0 mi NE 4.6 mph - N/A   Clear
11:33 AM 71.6 °F 50.0 °F 46% 30.20 in 10.0 mi NNE 4.6 mph - N/A   Clear
11:53 AM 71.6 °F 48.2 °F 43% 30.22 in 10.0 mi NNE 4.6 mph - N/A   Clear
12:14 PM 71.6 °F 48.2 °F 43% 30.21 in 10.0 mi ENE 4.6 mph - N/A   Clear
12:33 PM 71.6 °F 48.2 °F 43% 30.22 in 10.0 mi NE 3.5 mph - N/A   Clear
12:53 PM 71.6 °F 46.4 °F 41% 30.22 in 10.0 mi Calm Calm - N/A   Clear
1:14 PM 71.6 °F 46.4 °F 41% 30.22 in 10.0 mi NNE 3.5 mph - N/A   Clear
1:33 PM 73.4 °F 46.4 °F 38% 30.21 in 10.0 mi Calm Calm - N/A   Clear
1:53 PM 75.2 °F 44.6 °F 34% 30.21 in 10.0 mi East 9.2 mph - N/A   Clear
2:13 PM 75.2 °F 46.4 °F 36% 30.21 in 10.0 mi East 9.2 mph - N/A   Clear
2:33 PM 77.0 °F 46.4 °F 34% 30.21 in 10.0 mi ENE 11.5 mph - N/A   Clear
2:53 PM 77.0 °F 48.2 °F 36% 30.21 in 10.0 mi NNE 5.8 mph - N/A   Clear
3:13 PM 77.0 °F 46.4 °F 34% 30.21 in 10.0 mi NNE 8.1 mph - N/A   Clear
3:33 PM 77.0 °F 44.6 °F 32% 30.21 in 10.0 mi ENE 9.2 mph - N/A   Clear
3:53 PM 77.0 °F 46.4 °F 34% 30.20 in 10.0 mi NE 10.4 mph - N/A   Clear
4:13 PM 77.0 °F 46.4 °F 34% 30.20 in 10.0 mi East 4.6 mph - N/A   Clear
4:33 PM 77.0 °F 46.4 °F 34% 30.19 in 10.0 mi ENE 4.6 mph 9.2 mph N/A   Clear
4:54 PM 77.0 °F 48.2 °F 36% 30.20 in 10.0 mi ENE 5.8 mph - N/A   Clear
5:13 PM 77.0 °F 48.2 °F 36% 30.19 in 10.0 mi ENE 6.9 mph - N/A   Clear
5:33 PM 77.0 °F 50.0 °F 39% 30.19 in 10.0 mi NNE 6.9 mph - N/A   Clear
5:54 PM 77.0 °F 50.0 °F 39% 30.18 in 10.0 mi ENE 9.2 mph - N/A   Scattered Clouds
6:13 PM 77.0 °F 50.0 °F 39% 30.18 in 10.0 mi NE 6.9 mph - N/A   Scattered Clouds
6:33 PM 75.2 °F 50.0 °F 41% 30.18 in 10.0 mi NE 10.4 mph - N/A   Clear
6:53 PM 75.2 °F 50.0 °F 41% 30.19 in 10.0 mi ENE 8.1 mph - N/A   Clear
7:13 PM 73.4 °F 50.0 °F 44% 30.19 in 10.0 mi NE 4.6 mph - N/A   Clear
7:33 PM 73.4 °F 50.0 °F 44% 30.19 in 10.0 mi NE 3.5 mph - N/A   Clear
7:53 PM 71.6 °F 53.6 °F 53% 30.20 in 10.0 mi ENE 3.5 mph - N/A   Clear
8:13 PM 69.8 °F 53.6 °F 56% 30.20 in 10.0 mi NE 4.6 mph - N/A   Clear
8:33 PM 68.0 °F 53.6 °F 60% 30.19 in 10.0 mi NE 4.6 mph - N/A   Clear
8:53 PM 68.0 °F 53.6 °F 60% 30.20 in 10.0 mi Calm Calm - N/A   Clear
9:13 PM 64.4 °F 53.6 °F 68% 30.20 in 10.0 mi Calm Calm - N/A   Clear
9:33 PM 60.8 °F 55.4 °F 82% 30.21 in 10.0 mi Calm Calm - N/A   Clear
9:53 PM 60.8 °F 53.6 °F 77% 30.21 in 10.0 mi Calm Calm - N/A   Clear
10:14 PM 59.0 °F 53.6 °F 82% 30.23 in 10.0 mi Calm Calm - N/A   Clear
10:33 PM 57.2 °F 51.8 °F 82% 30.23 in 10.0 mi Calm Calm - N/A   Clear
10:53 PM 57.2 °F 51.8 °F 82% 30.24 in 10.0 mi Calm Calm - N/A   Clear
11:14 PM 57.2 °F 53.6 °F 88% 30.24 in 10.0 mi Calm Calm - N/A   Clear
11:33 PM 55.4 °F 51.8 °F 88% 30.24 in 7.0 mi Calm Calm - N/A   Clear
11:53 PM 55.4 °F 51.8 °F 88% 30.24 in 10.0 mi Calm Calm - N/A   Clear